Showing default

JACK-002, 68417

Orbit data source: Space-Track

JACK-002, 68417 is a South Korean payload satellite in SSO that was launched on Mon, 30 Mar 2026 UTC via an FALCON 9 launch vehicle from the Air Force Western Test Range (AFWTR). Payload-class satellites include a variety of spacecraft equipped with specific instruments for various scientific and technological missions. These include communications satellites like Starlink; space stations such as the ISS; scientific satellites like the Hubble; Earth observation satellites from companies like Planet Labs, Umbra, and HawkEye 360; GPS; miniature CubeSats for education and research; and military/defense satellites.

Loading next visibility...
Identifier
68417, 2026-067B
Orbit
SSO
Country
Flag of KRKR / SKOR
Related business
Manufacturer
COSMW
Mission
Operational Commercial Imaging
Bus & Motor
CUBESAT 3U, Unknown motor
Mass
5 kg wet, 5 kg dry
Launch date (UTC)
2026-03-30 (6 months ago)
Launch vehicle
FALCON 9
Launch site
Air Force Western Test Range (AFWTR)
Object type
Payload
Rocket body
Debris
Shape & HBR
Box, 0.2 m
Radar Cross Section
0.035 m², Medium (>0.1 m² and < 1m²)

Expand to show TLE details & history
Last TLE update: 19 hours ago

TLE from 19 hours ago
0 JACK-002
1 68417U 26067B   26262.63505559  .00004873  00000-0  22676-3 0  9991
2 68417  97.4671 220.1781 0001319  19.7204 340.4082 15.20404539 26293
Epoch: 2026-09-19T15:14Z
TLE epoch observation values (Epoch: 2026-09-19T15:14:28.802Z)
Latitude
-0.00005°
Longitude
-6.98267°
Altitude
506.853 km
Speed
7.611 km/s
True Right ascension
14h 40m 42s
True Declination
0° 00' 00"
Sunlit
Object was in daylight at epoch
Visualization orbit readout
Latitude
Unknown
Longitude
Unknown
Altitude
Unknown
Speed
Unknown
Apparent Right ascension
Unknown
Apparent Declination
Unknown
Sunlit
N/A
Visualization observer readout
Local Sidereal Time
03:11:27
Azimuth
Unknown
Elevation
Unknown
Doppler factor
Unknown
Orbital elements
Apogee altitude
502.495 km
Perigee altitude
500.68 km
Semi-major axis
6,879.724 km
Eccentricity
0.00013
Inclination
97.4671°
RAAN
220.1781°
Arg. of periapsis
19.7204°
True anomaly
340.40313°
Mean anomaly
340.4082°
Eccentric anomaly
340.40567°
Mean motion
3.80353 °/min
Orbital period
94.65 mins
BSTAR
0.00022676
Loading maneuver chart data...
Computing Atmospheric mass density...
Loading historical data...
Loading historical data...
Loading historical data...
Loading historical data...
Loading historical data...
Loading historical data...
Loading historical data...

Documentation

Showing up to 5 results
|